M I D A S
Marine Information and Data Acquisition System
Tripno 1996 of the Zeeleeuw from 2010-10-27 06:16:02 to 2010-10-27 14:40:10
Back to CruiseResearch ActivitiesStationsMapUnderway DataData graphs

EquipmentUnitsComments
TimeDGPSUTC
LatitudeDGPSDM.mWGS84
LongitudeDGPSDM.mWGS84
SpeedMeteo Stationm/sRelative wind speed
DirectionMeteo StationdegRelative wind direction
TemperatureMeteo Stationdeg CelciusAir temperature
PressureMeteo StationPaAtmospheric pressure
HumidityMeteo Station%Relative humidity
Missing or incorrect values are displayed as -999
Metereological data collected by the RV Zeeleeuw from 2010-10-27 06:10:07 to 2010-10-27 14:46:31
                                                                                    Next 1000 lines
Time Latitude Longitude Speed Direction Temperature Pressure Humidity
2010-10-27 06:10:16 51°13.664 2°55.961 0.1 6 9.2 101980 45
2010-10-27 06:10:21 51°13.664 2°55.961 0.1 17 9.2 101980 45
2010-10-27 06:10:26 51°13.664 2°55.961 3.9 20 9.2 101980 43
2010-10-27 06:10:31 51°13.664 2°55.961 2.1 352 9.2 101980 43
2010-10-27 06:10:35 51°13.664 2°55.961 0.5 350 9.2 101980 43
2010-10-27 06:10:40 51°13.664 2°55.961 0.4 -999 9.2 101980 43
2010-10-27 06:10:45 51°13.664 2°55.961 0.8 6 9.2 101990 44
2010-10-27 06:10:50 51°13.664 2°55.961 0.8 -999 9.2 101990 44
2010-10-27 06:10:55 51°13.664 2°55.961 0.4 1 9.2 101990 43
2010-10-27 06:10:59 51°13.664 2°55.962 0.7 349 9.2 101990 43
2010-10-27 06:11:05 51°13.664 2°55.962 2.8 19 9.2 101980 43
2010-10-27 06:11:10 51°13.664 2°55.962 1.2 20 9.2 101980 43
2010-10-27 06:11:15 51°13.664 2°55.962 3.4 2 9.2 101980 43
2010-10-27 06:11:20 51°13.664 2°55.962 3.6 14 9.2 101980 43
2010-10-27 06:11:25 51°13.664 2°55.962 2.6 4 9.2 101980 41
2010-10-27 06:11:30 51°13.663 2°55.962 3.8 355 9.2 101980 41
2010-10-27 06:11:35 51°13.664 2°55.962 5.3 353 9.2 101980 42
2010-10-27 06:11:39 51°13.664 2°55.962 5.2 356 9.2 101980 42
2010-10-27 06:11:44 51°13.664 2°55.961 4.9 360 9.2 101990 45
2010-10-27 06:11:49 51°13.664 2°55.961 4.3 351 9.2 101990 45
2010-10-27 06:11:54 51°13.663 2°55.962 5.2 353 9.2 101990 41
2010-10-27 06:11:59 51°13.664 2°55.962 3.9 3 9.2 101990 41
2010-10-27 06:12:03 51°13.664 2°55.961 3.8 356 9.2 101980 44
2010-10-27 06:12:08 51°13.663 2°55.961 4.7 356 9.2 101980 44
2010-10-27 06:12:13 51°13.663 2°55.961 5.6 10 9.2 101980 44
2010-10-27 06:12:18 51°13.663 2°55.961 3.2 355 9.2 101980 44
2010-10-27 06:12:24 51°13.663 2°55.961 3.3 358 9.2 101970 42
2010-10-27 06:12:29 51°13.663 2°55.961 2.1 353 9.2 101970 42
2010-10-27 06:12:35 51°13.664 2°55.961 4.1 355 9.2 101980 42
2010-10-27 06:12:39 51°13.663 2°55.961 3 354 9.2 101980 42
2010-10-27 06:12:44 51°13.663 2°55.96 2.6 358 9.2 101980 44
2010-10-27 06:12:49 51°13.663 2°55.96 4.2 5 9.2 101980 44
2010-10-27 06:12:54 51°13.663 2°55.96 3.4 8 9.2 101980 42
2010-10-27 06:12:59 51°13.663 2°55.96 4.4 353 9.2 101980 42
2010-10-27 06:13:03 51°13.663 2°55.96 4 349 9.2 101980 45
2010-10-27 06:13:08 51°13.663 2°55.961 5.1 359 9.2 101980 45
2010-10-27 06:13:13 51°13.664 2°55.96 3.9 358 9.2 101980 44
2010-10-27 06:13:19 51°13.663 2°55.961 3.3 352 9.2 101980 44
2010-10-27 06:13:23 51°13.663 2°55.961 3.8 356 9.2 101980 42
2010-10-27 06:13:28 51°13.664 2°55.96 3.4 8 9.2 101980 42
2010-10-27 06:13:33 51°13.664 2°55.96 3.2 1 9.2 101980 42
2010-10-27 06:13:38 51°13.664 2°55.96 3.6 5 9.2 101980 42
2010-10-27 06:13:43 51°13.664 2°55.96 3.4 354 9.2 101980 44
2010-10-27 06:13:48 51°13.664 2°55.96 2.9 353 9.2 101980 44
2010-10-27 06:13:53 51°13.664 2°55.96 3.3 351 9.2 101980 42
2010-10-27 06:13:59 51°13.664 2°55.96 5.9 352 9.2 101980 42
2010-10-27 06:14:03 51°13.664 2°55.96 7.3 351 9.2 101980 44
2010-10-27 06:14:08 51°13.665 2°55.96 7.2 4 9.2 101980 44
2010-10-27 06:14:13 51°13.665 2°55.959 7.1 358 9.2 101980 45
2010-10-27 06:14:19 51°13.665 2°55.959 3.7 6 9.2 101980 45
2010-10-27 06:14:23 51°13.664 2°55.959 4.5 4 9.2 101980 44
2010-10-27 06:14:28 51°13.664 2°55.96 2.8 4 9.2 101980 44
2010-10-27 06:14:33 51°13.664 2°55.959 3.7 7 9.2 101970 43
2010-10-27 06:14:38 51°13.664 2°55.959 4.1 6 9.2 101970 43
2010-10-27 06:14:43 51°13.665 2°55.959 2.9 9 9.2 101970 45
2010-10-27 06:14:48 51°13.664 2°55.959 3 358 9.2 101970 45
2010-10-27 06:14:53 51°13.664 2°55.959 1.9 12 9.2 101980 44
2010-10-27 06:14:58 51°13.664 2°55.959 2.8 9 9.2 101980 44
2010-10-27 06:15:03 51°13.664 2°55.959 3.2 3 9.2 101980 42
2010-10-27 06:15:08 51°13.664 2°55.96 3.4 346 9.2 101980 42
2010-10-27 06:15:13 51°13.664 2°55.96 3 358 9.2 101980 41
2010-10-27 06:15:18 51°13.664 2°55.96 1.1 355 9.2 101980 41
2010-10-27 06:15:23 51°13.663 2°55.96 3.9 352 9.2 101980 43
2010-10-27 06:15:28 51°13.663 2°55.96 5.4 3 9.2 101980 43
2010-10-27 06:15:33 51°13.663 2°55.96 4.8 4 9.2 101980 43
2010-10-27 06:15:39 51°13.664 2°55.96 5.2 351 9.2 101980 43
2010-10-27 06:15:43 51°13.664 2°55.96 3.9 348 9.2 101980 45
2010-10-27 06:15:48 51°13.664 2°55.96 3.8 284 9.2 101980 45
2010-10-27 06:15:54 51°13.664 2°55.961 4.2 -999 9.2 101980 43
2010-10-27 06:15:59 51°13.664 2°55.961 3 355 9.2 101980 43
2010-10-27 06:16:03 51°13.663 2°55.961 3.5 355 9.2 101980 43
2010-10-27 06:16:08 51°13.664 2°55.961 4.2 3 9.2 101980 43
2010-10-27 06:16:13 51°13.664 2°55.961 3.3 358 9.2 101980 42
2010-10-27 06:16:19 51°13.664 2°55.961 4.7 356 9.2 101980 42
2010-10-27 06:16:23 51°13.664 2°55.961 5.1 356 9.2 101980 42
2010-10-27 06:16:28 51°13.664 2°55.961 3.1 7 9.2 101980 42
2010-10-27 06:16:33 51°13.665 2°55.961 5.5 2 9.2 101980 42
2010-10-27 06:16:38 51°13.665 2°55.961 5.9 10 9.2 101980 42
2010-10-27 06:16:43 51°13.664 2°55.961 6.3 9 9.2 101990 41
2010-10-27 06:16:48 51°13.665 2°55.961 3.4 3 9.2 101990 41
2010-10-27 06:16:53 51°13.665 2°55.96 3.7 11 9.2 101980 44
2010-10-27 06:16:58 51°13.665 2°55.96 4.2 1 9.2 101980 44
2010-10-27 06:17:03 51°13.665 2°55.961 2.7 358 9.2 101980 42
2010-10-27 06:17:08 51°13.665 2°55.96 3.3 8 9.2 101980 42
2010-10-27 06:17:13 51°13.665 2°55.961 2.6 5 9.2 101980 40
2010-10-27 06:17:18 51°13.665 2°55.961 5.4 14 9.2 101980 40
2010-10-27 06:17:23 51°13.665 2°55.961 6.1 19 9.2 101980 43
2010-10-27 06:17:28 51°13.665 2°55.961 3.1 9 9.2 101980 43
2010-10-27 06:17:33 51°13.664 2°55.961 2.7 351 9.2 101980 42
2010-10-27 06:17:38 51°13.664 2°55.96 2.2 358 9.2 101980 42
2010-10-27 06:17:43 51°13.664 2°55.96 2.8 5 9.2 101980 43
2010-10-27 06:17:48 51°13.664 2°55.96 2.1 8 9.2 101980 43
2010-10-27 06:17:53 51°13.663 2°55.96 3.2 357 9.2 101980 41
2010-10-27 06:17:59 51°13.663 2°55.96 1.9 360 9.2 101980 41
2010-10-27 06:18:03 51°13.663 2°55.96 3.2 347 9.2 101980 42
2010-10-27 06:18:08 51°13.663 2°55.96 5 355 9.2 101980 42
2010-10-27 06:18:13 51°13.663 2°55.96 4.6 8 9.2 101980 43
2010-10-27 06:18:18 51°13.663 2°55.96 3.6 346 9.2 101980 43
2010-10-27 06:18:23 51°13.663 2°55.96 2.4 358 9.2 101980 41
2010-10-27 06:18:28 51°13.663 2°55.96 3.9 346 9.2 101980 41
2010-10-27 06:18:33 51°13.663 2°55.96 2.4 358 9.2 101980 44
2010-10-27 06:18:39 51°13.663 2°55.96 5.1 346 9.2 101980 44
2010-10-27 06:18:43 51°13.663 2°55.96 4.1 354 9.2 101980 45
2010-10-27 06:18:48 51°13.663 2°55.96 2.7 356 9.2 101980 45
2010-10-27 06:18:53 51°13.663 2°55.96 3.4 354 9.2 101980 45
2010-10-27 06:18:58 51°13.663 2°55.96 3.8 4 9.2 101980 45
2010-10-27 06:19:03 51°13.663 2°55.96 1.4 9 9.2 101980 42
2010-10-27 06:19:08 51°13.663 2°55.96 3.5 359 9.2 101980 42
2010-10-27 06:19:13 51°13.663 2°55.96 2.5 359 9.2 101980 41
2010-10-27 06:19:18 51°13.663 2°55.96 2.8 1 9.2 101980 41
2010-10-27 06:19:23 51°13.663 2°55.96 2.6 354 9.2 101980 45
2010-10-27 06:19:28 51°13.663 2°55.96 1.8 353 9.2 101980 45
2010-10-27 06:19:33 51°13.663 2°55.96 0.6 340 9.2 101980 42
2010-10-27 06:19:38 51°13.663 2°55.961 1.7 348 9.2 101980 42
2010-10-27 06:19:43 51°13.663 2°55.961 0.6 354 9.2 101980 45
2010-10-27 06:19:48 51°13.663 2°55.961 0.2 2 9.2 101980 45
2010-10-27 06:19:53 51°13.663 2°55.961 0.1 10 9.2 101980 42
2010-10-27 06:19:58 51°13.663 2°55.961 0.7 2 9.2 101980 42
2010-10-27 06:20:03 51°13.663 2°55.961 3.8 354 9.2 101980 43
2010-10-27 06:20:08 51°13.662 2°55.961 2 356 9.2 101980 43
2010-10-27 06:20:14 51°13.663 2°55.961 2.4 359 9.2 101980 44
2010-10-27 06:20:18 51°13.663 2°55.961 1.9 10 9.2 101980 44
2010-10-27 06:20:22 51°13.663 2°55.961 0.4 26 9.2 101980 42
2010-10-27 06:20:28 51°13.662 2°55.961 1.5 20 9.2 101980 42
2010-10-27 06:20:33 51°13.662 2°55.96 3.1 13 9.2 101980 45
2010-10-27 06:20:38 51°13.662 2°55.961 3.1 359 9.2 101980 45
2010-10-27 06:20:43 51°13.662 2°55.961 1.7 4 9.2 101980 44
2010-10-27 06:20:48 51°13.662 2°55.96 0.9 14 9.2 101980 44
2010-10-27 06:20:53 51°13.662 2°55.96 2.5 351 9.2 101980 44
2010-10-27 06:20:58 51°13.662 2°55.96 1.3 8 9.2 101980 44
2010-10-27 06:21:02 51°13.662 2°55.96 0.6 7 9.2 101980 42
2010-10-27 06:21:08 51°13.662 2°55.96 2.5 5 9.2 101980 42
2010-10-27 06:21:13 51°13.661 2°55.96 3.5 6 9.2 101980 45
2010-10-27 06:21:18 51°13.661 2°55.96 1 359 9.2 101980 45
2010-10-27 06:21:23 51°13.661 2°55.961 3.5 5 9.2 101980 45
2010-10-27 06:21:28 51°13.66 2°55.961 1.4 6 9.2 101980 45
2010-10-27 06:21:33 51°13.66 2°55.961 1 21 9.2 101980 42
2010-10-27 06:21:37 51°13.66 2°55.961 2.8 6 9.2 101980 42
2010-10-27 06:21:43 51°13.66 2°55.961 3.2 9 9.2 101980 42
2010-10-27 06:21:48 51°13.66 2°55.959 3.8 360 9.2 101980 42
2010-10-27 06:21:53 51°13.661 2°55.959 2.7 359 9.2 101980 42
2010-10-27 06:21:58 51°13.661 2°55.957 3.5 6 9.2 101980 42
2010-10-27 06:22:03 51°13.661 2°55.955 4 5 9.2 101980 42
2010-10-27 06:22:08 51°13.662 2°55.952 4.7 20 9.2 101980 42
2010-10-27 06:22:13 51°13.663 2°55.949 4.2 17 9.2 101980 44
2010-10-27 06:22:19 51°13.665 2°55.944 4.5 12 9.2 101980 44
2010-10-27 06:22:24 51°13.666 2°55.94 3.8 31 9.2 101980 42
2010-10-27 06:22:30 51°13.668 2°55.934 3.2 23 9.2 101980 42
2010-10-27 06:22:35 51°13.669 2°55.928 3.9 28 9.2 101980 43
2010-10-27 06:22:41 51°13.671 2°55.921 3.4 21 9.2 101980 43
2010-10-27 06:22:47 51°13.674 2°55.913 3.9 26 9.2 101980 41
2010-10-27 06:22:52 51°13.676 2°55.907 5.5 34 9.2 101980 41
2010-10-27 06:22:57 51°13.678 2°55.899 2.5 12 9.3 101980 42
2010-10-27 06:23:02 51°13.68 2°55.892 3.3 35 9.3 101980 42
2010-10-27 06:23:07 51°13.682 2°55.884 3.7 39 9.2 101980 42
2010-10-27 06:23:12 51°13.685 2°55.877 2.9 27 9.2 101980 42
2010-10-27 06:23:17 51°13.687 2°55.869 4.7 29 9.2 101980 44
2010-10-27 06:23:22 51°13.689 2°55.862 5.1 27 9.2 101980 44
2010-10-27 06:23:27 51°13.691 2°55.854 3.8 29 9.2 101980 45
2010-10-27 06:23:32 51°13.693 2°55.846 4 36 9.2 101980 45
2010-10-27 06:23:37 51°13.694 2°55.839 3 33 9.2 101980 43
2010-10-27 06:23:42 51°13.695 2°55.831 5.8 35 9.2 101980 43
2010-10-27 06:23:47 51°13.697 2°55.823 6.4 25 9.2 101980 42
2010-10-27 06:23:52 51°13.697 2°55.816 3.6 34 9.2 101980 42
2010-10-27 06:23:57 51°13.698 2°55.808 6.4 33 9.2 101980 42
2010-10-27 06:24:02 51°13.699 2°55.8 6.2 24 9.2 101980 42
2010-10-27 06:24:07 51°13.699 2°55.793 5.4 32 9.2 101980 43
2010-10-27 06:24:12 51°13.699 2°55.786 6.5 28 9.2 101980 43
2010-10-27 06:24:17 51°13.698 2°55.779 5.8 38 9.2 101980 44
2010-10-27 06:24:22 51°13.698 2°55.772 6.2 34 9.2 101980 44
2010-10-27 06:24:27 51°13.698 2°55.765 5.3 39 9.2 101980 42
2010-10-27 06:24:32 51°13.697 2°55.758 5.1 43 9.2 101980 42
2010-10-27 06:24:37 51°13.696 2°55.752 3.9 42 9.2 101980 43
2010-10-27 06:24:42 51°13.695 2°55.746 5 39 9.2 101980 43
2010-10-27 06:24:47 51°13.695 2°55.74 2.6 25 9.2 101990 43
2010-10-27 06:24:52 51°13.694 2°55.736 3.5 38 9.2 101990 43
2010-10-27 06:24:57 51°13.695 2°55.734 1.8 34 9.2 101980 44
2010-10-27 06:25:02 51°13.695 2°55.733 1.6 28 9.2 101980 44
2010-10-27 06:25:07 51°13.696 2°55.732 0.9 39 9.2 101980 42
2010-10-27 06:25:12 51°13.696 2°55.733 1.7 34 9.2 101980 42
2010-10-27 06:25:17 51°13.698 2°55.734 1.9 31 9.2 101980 41
2010-10-27 06:25:22 51°13.7 2°55.735 0.3 39 9.2 101980 41
2010-10-27 06:25:27 51°13.702 2°55.737 0.3 27 9.2 101980 45
2010-10-27 06:25:31 51°13.704 2°55.739 0.8 44 9.2 101980 45
2010-10-27 06:25:36 51°13.707 2°55.741 0.6 22 9.2 101980 45
2010-10-27 06:25:41 51°13.71 2°55.742 2.3 42 9.2 101980 45
2010-10-27 06:25:46 51°13.712 2°55.743 2.8 28 9.2 101980 45
2010-10-27 06:25:51 51°13.714 2°55.744 2 58 9.2 101980 45
2010-10-27 06:25:55 51°13.714 2°55.745 2.6 23 9.3 101980 41
2010-10-27 06:26:00 51°13.715 2°55.745 2.9 54 9.3 101980 41
2010-10-27 06:26:05 51°13.715 2°55.745 1.5 19 9.2 101980 42
2010-10-27 06:26:10 51°13.715 2°55.745 2.6 48 9.2 101980 42
2010-10-27 06:26:15 51°13.714 2°55.745 3.6 21 9.2 101980 45
2010-10-27 06:26:19 51°13.713 2°55.745 2.2 51 9.2 101980 45
2010-10-27 06:26:25 51°13.711 2°55.744 1.4 22 9.3 101980 43
2010-10-27 06:26:31 51°13.709 2°55.744 2.4 58 9.3 101980 43
2010-10-27 06:26:36 51°13.708 2°55.743 1.3 19 9.3 101990 45
2010-10-27 06:26:42 51°13.708 2°55.743 1.5 53 9.3 101990 45
2010-10-27 06:26:47 51°13.71 2°55.743 1.9 26 9.3 101980 43
2010-10-27 06:26:52 51°13.712 2°55.743 0.2 82 9.3 101980 43
2010-10-27 06:26:57 51°13.715 2°55.742 0.6 20 9.4 101980 42
2010-10-27 06:27:02 51°13.718 2°55.74 0.1 54 9.4 101980 42
2010-10-27 06:27:07 51°13.721 2°55.738 2.2 23 9.4 101980 43
2010-10-27 06:27:11 51°13.725 2°55.736 3 50 9.4 101980 43
2010-10-27 06:27:16 51°13.729 2°55.732 1.4 265 9.4 101980 43
2010-10-27 06:27:21 51°13.734 2°55.728 0.6 309 9.4 101980 43
2010-10-27 06:27:26 51°13.74 2°55.723 0.2 263 9.4 101980 42
2010-10-27 06:27:31 51°13.746 2°55.717 0.1 306 9.4 101980 42
2010-10-27 06:27:35 51°13.751 2°55.712 0.1 28 9.4 101980 41
2010-10-27 06:27:41 51°13.759 2°55.704 -999 304 9.4 101980 41
2010-10-27 06:27:45 51°13.764 2°55.698 -999 26 9.4 101980 43
2010-10-27 06:27:50 51°13.772 2°55.691 0.9 299 9.4 101980 43
2010-10-27 06:27:55 51°13.779 2°55.684 0.2 23 9.4 101980 42
2010-10-27 06:28:00 51°13.787 2°55.677 0.1 287 9.4 101980 42
2010-10-27 06:28:05 51°13.796 2°55.669 -999 27 9.4 101980 43
2010-10-27 06:28:10 51°13.804 2°55.661 -999 54 9.4 101980 43
2010-10-27 06:28:15 51°13.813 2°55.654 0.3 264 9.4 101990 43
2010-10-27 06:28:19 51°13.821 2°55.647 1 80 9.4 101990 43
2010-10-27 06:28:24 51°13.83 2°55.639 0.2 22 9.4 101990 43
2010-10-27 06:28:29 51°13.84 2°55.631 0.1 61 9.4 101990 43
2010-10-27 06:28:34 51°13.85 2°55.623 2.7 24 9.4 101980 43
2010-10-27 06:28:39 51°13.86 2°55.615 3.3 310 9.4 101980 43
2010-10-27 06:28:43 51°13.869 2°55.608 4.9 32 9.4 101980 43
2010-10-27 06:28:49 51°13.882 2°55.598 2.9 56 9.4 101980 43
2010-10-27 06:28:54 51°13.893 2°55.59 2.4 20 9.4 101980 42
2010-10-27 06:28:59 51°13.904 2°55.581 1.5 312 9.4 101980 42
2010-10-27 06:29:03 51°13.913 2°55.575 1.2 269 9.4 101980 42
2010-10-27 06:29:08 51°13.924 2°55.567 1 309 9.4 101980 42
2010-10-27 06:29:13 51°13.936 2°55.559 1.6 252 9.4 101980 46
2010-10-27 06:29:19 51°13.95 2°55.548 0.2 301 9.4 101980 46
2010-10-27 06:29:23 51°13.959 2°55.542 2 26 9.4 101980 43
2010-10-27 06:29:28 51°13.971 2°55.533 0.3 304 9.4 101980 43
2010-10-27 06:29:33 51°13.983 2°55.525 0.2 31 9.4 101980 42
2010-10-27 06:29:39 51°13.997 2°55.515 0.1 310 9.4 101980 42
2010-10-27 06:29:44 51°14.01 2°55.506 -999 22 9.4 101980 46
2010-10-27 06:29:49 51°14.022 2°55.497 0.1 307 9.4 101980 46
2010-10-27 06:29:54 51°14.034 2°55.489 0.1 23 9.3 101980 43
2010-10-27 06:29:59 51°14.046 2°55.48 -999 307 9.3 101980 43
2010-10-27 06:30:04 51°14.058 2°55.472 -999 261 9.3 101980 43
2010-10-27 06:30:10 51°14.073 2°55.462 -999 303 9.3 101980 43
2010-10-27 06:30:15 51°14.086 2°55.453 -999 24 9.3 101980 43
2010-10-27 06:30:21 51°14.101 2°55.443 0.7 288 9.3 101980 43
2010-10-27 06:30:27 51°14.117 2°55.433 4.4 247 9.3 101980 43
2010-10-27 06:30:32 51°14.129 2°55.425 3 309 9.3 101980 43
2010-10-27 06:30:37 51°14.142 2°55.416 1.9 25 9.3 101980 42
2010-10-27 06:30:42 51°14.154 2°55.407 1.8 53 9.3 101980 42
2010-10-27 06:30:47 51°14.167 2°55.398 2.1 23 9.3 101980 42
2010-10-27 06:30:52 51°14.18 2°55.389 3.1 301 9.3 101980 42
2010-10-27 06:30:57 51°14.193 2°55.379 1.5 20 9.3 101980 44
2010-10-27 06:31:02 51°14.206 2°55.369 1.9 57 9.3 101980 44
2010-10-27 06:31:07 51°14.218 2°55.358 1.6 24 9.3 101980 45
2010-10-27 06:31:11 51°14.229 2°55.349 2.4 301 9.3 101980 45
2010-10-27 06:31:16 51°14.241 2°55.337 3.1 21 9.3 101980 43
2010-10-27 06:31:21 51°14.253 2°55.325 3.2 308 9.3 101980 43
2010-10-27 06:31:26 51°14.266 2°55.313 3.7 26 9.3 101990 45
2010-10-27 06:31:31 51°14.278 2°55.3 6.2 309 9.3 101990 45
2010-10-27 06:31:35 51°14.288 2°55.29 5.6 27 9.3 101980 41
2010-10-27 06:31:41 51°14.304 2°55.274 3.3 308 9.3 101980 41
2010-10-27 06:31:46 51°14.317 2°55.26 4.2 20 9.3 101990 42
2010-10-27 06:31:51 51°14.33 2°55.247 4.3 305 9.3 101990 42
2010-10-27 06:31:57 51°14.346 2°55.23 3.6 21 9.3 101980 42
2010-10-27 06:32:02 51°14.36 2°55.217 4.1 303 9.3 101980 42
2010-10-27 06:32:07 51°14.373 2°55.204 5.6 22 9.3 101980 45
2010-10-27 06:32:12 51°14.387 2°55.19 5.5 307 9.3 101980 45
2010-10-27 06:32:17 51°14.401 2°55.177 6.4 258 9.3 101980 42
2010-10-27 06:32:22 51°14.414 2°55.164 5.2 308 9.3 101980 42
2010-10-27 06:32:27 51°14.428 2°55.149 3.7 249 9.3 101980 42
2010-10-27 06:32:32 51°14.442 2°55.135 4.9 308 9.3 101980 42
2010-10-27 06:32:37 51°14.457 2°55.12 4.4 256 9.3 101980 42
2010-10-27 06:32:42 51°14.471 2°55.106 4 309 9.3 101980 42
2010-10-27 06:32:47 51°14.485 2°55.09 3.8 249 9.3 101980 42
2010-10-27 06:32:51 51°14.496 2°55.08 4.4 309 9.3 101980 42
2010-10-27 06:32:56 51°14.511 2°55.065 6.8 257 9.3 101980 43
2010-10-27 06:33:01 51°14.526 2°55.049 4.5 305 9.3 101980 43
2010-10-27 06:33:06 51°14.541 2°55.034 4.7 21 9.3 101980 44
2010-10-27 06:33:11 51°14.554 2°55.017 5.2 303 9.3 101980 44
2010-10-27 06:33:15 51°14.565 2°55.001 5.5 256 9.3 101980 42
2010-10-27 06:33:20 51°14.579 2°54.982 5.9 307 9.3 101980 42
2010-10-27 06:33:25 51°14.594 2°54.964 5.3 20 9.3 101980 42
2010-10-27 06:33:30 51°14.608 2°54.947 6.4 302 9.3 101980 42
2010-10-27 06:33:35 51°14.623 2°54.929 5.3 21 9.3 101970 44
2010-10-27 06:33:40 51°14.637 2°54.912 6 306 9.3 101970 44
2010-10-27 06:33:44 51°14.65 2°54.898 7.4 250 9.3 101970 43
2010-10-27 06:33:49 51°14.664 2°54.879 7.7 309 9.3 101970 43
2010-10-27 06:33:55 51°14.682 2°54.858 7 247 9.3 101980 43
2010-10-27 06:33:59 51°14.694 2°54.844 8.5 306 9.3 101980 43
2010-10-27 06:34:04 51°14.709 2°54.827 6.9 251 9.3 101980 43
2010-10-27 06:34:09 51°14.724 2°54.809 6.7 305 9.3 101980 43
2010-10-27 06:34:15 51°14.742 2°54.787 7.3 259 9.3 101980 43
2010-10-27 06:34:20 51°14.757 2°54.768 6.5 310 9.3 101980 43
2010-10-27 06:34:24 51°14.769 2°54.754 7.6 256 9.3 101980 44
2010-10-27 06:34:29 51°14.784 2°54.737 6.8 306 9.3 101980 44
2010-10-27 06:34:34 51°14.799 2°54.719 6.4 256 9.3 101980 44
2010-10-27 06:34:39 51°14.814 2°54.701 6.2 301 9.3 101980 44
2010-10-27 06:34:44 51°14.829 2°54.683 6.3 259 9.3 101980 44
2010-10-27 06:34:49 51°14.844 2°54.666 6.6 303 9.3 101980 44
2010-10-27 06:34:54 51°14.859 2°54.648 6.7 257 9.3 101980 44
2010-10-27 06:34:59 51°14.874 2°54.63 4.8 308 9.3 101980 44
2010-10-27 06:35:05 51°14.892 2°54.61 5.2 260 9.3 101990 42
2010-10-27 06:35:11 51°14.911 2°54.589 3.6 309 9.3 101990 42
2010-10-27 06:35:16 51°14.926 2°54.572 3.8 263 9.3 101980 44
2010-10-27 06:35:22 51°14.944 2°54.551 4.4 310 9.3 101980 44
2010-10-27 06:35:27 51°14.959 2°54.534 6 263 9.3 101980 43
2010-10-27 06:35:31 51°14.97 2°54.52 4.9 302 9.3 101980 43
2010-10-27 06:35:36 51°14.985 2°54.503 4.2 262 9.3 101970 43
2010-10-27 06:35:41 51°15 2°54.485 6.1 304 9.3 101970 43
2010-10-27 06:35:46 51°15.015 2°54.467 6.1 258 9.3 101970 44
2010-10-27 06:35:51 51°15.03 2°54.45 3.9 310 9.3 101970 44
2010-10-27 06:35:55 51°15.042 2°54.435 4.8 263 9.3 101960 42
2010-10-27 06:36:00 51°15.057 2°54.418 4.3 303 9.3 101960 42
2010-10-27 06:36:05 51°15.072 2°54.401 3.7 259 9.3 101970 42
2010-10-27 06:36:10 51°15.087 2°54.384 6.9 307 9.3 101970 42
2010-10-27 06:36:15 51°15.102 2°54.367 6.1 257 9.3 101970 43
2010-10-27 06:36:20 51°15.117 2°54.35 6.7 308 9.3 101970 43
2010-10-27 06:36:24 51°15.129 2°54.336 6.1 253 9.3 101980 44
2010-10-27 06:36:29 51°15.144 2°54.318 6.2 308 9.3 101980 44
2010-10-27 06:36:34 51°15.16 2°54.301 6.5 253 9.4 101970 42
2010-10-27 06:36:39 51°15.175 2°54.284 7.8 303 9.4 101970 42
2010-10-27 06:36:44 51°15.19 2°54.267 7.8 258 9.3 101970 42
2010-10-27 06:36:49 51°15.206 2°54.249 6.4 307 9.3 101970 42
2010-10-27 06:36:54 51°15.221 2°54.232 6.5 257 9.4 101970 44
2010-10-27 06:36:59 51°15.236 2°54.215 7.5 278 9.4 101970 44
2010-10-27 06:37:03 51°15.249 2°54.201 7.2 255 9.4 101970 42
2010-10-27 06:37:07 51°15.261 2°54.186 8.3 303 9.4 101970 42
2010-10-27 06:37:13 51°15.279 2°54.166 8.9 252 9.4 101980 43
2010-10-27 06:37:18 51°15.294 2°54.148 10.4 307 9.4 101980 43
2010-10-27 06:37:23 51°15.31 2°54.131 9.5 253 9.4 101980 43
2010-10-27 06:37:28 51°15.325 2°54.113 8.2 304 9.4 101980 43
2010-10-27 06:37:33 51°15.34 2°54.096 7.9 251 9.4 101980 43
2010-10-27 06:37:38 51°15.354 2°54.077 8 307 9.4 101980 43
2010-10-27 06:37:43 51°15.369 2°54.059 8.7 256 9.4 101990 42
2010-10-27 06:37:48 51°15.384 2°54.04 8 302 9.4 101990 42
2010-10-27 06:37:53 51°15.399 2°54.022 7.9 250 9.4 102000 42
2010-10-27 06:37:58 51°15.413 2°54.003 9.7 309 9.4 102000 42
2010-10-27 06:38:03 51°15.428 2°53.984 7.6 254 9.4 101980 43
2010-10-27 06:38:08 51°15.442 2°53.966 7.5 286 9.4 101980 43
2010-10-27 06:38:14 51°15.46 2°53.944 8 255 9.4 101980 43
2010-10-27 06:38:19 51°15.474 2°53.925 8.5 304 9.4 101980 43
2010-10-27 06:38:23 51°15.486 2°53.911 8.5 253 9.4 101980 42
2010-10-27 06:38:28 51°15.5 2°53.892 7.9 303 9.4 101980 42
2010-10-27 06:38:33 51°15.515 2°53.874 7.1 253 9.4 101980 41
2010-10-27 06:38:39 51°15.532 2°53.851 7.2 305 9.4 101980 41
2010-10-27 06:38:43 51°15.544 2°53.837 6.8 259 9.4 101990 43
2010-10-27 06:38:48 51°15.559 2°53.818 7.6 304 9.4 101990 43
2010-10-27 06:38:53 51°15.573 2°53.8 7.9 253 9.4 101980 42
2010-10-27 06:38:59 51°15.59 2°53.777 8.6 308 9.4 101980 42
2010-10-27 06:39:03 51°15.602 2°53.763 8.1 256 9.4 101980 43
2010-10-27 06:39:08 51°15.616 2°53.745 8.1 308 9.4 101980 43
2010-10-27 06:39:13 51°15.631 2°53.726 7.9 253 9.4 101990 42
2010-10-27 06:39:18 51°15.645 2°53.709 7.8 302 9.4 101990 42
2010-10-27 06:39:23 51°15.66 2°53.69 7.6 256 9.4 101970 42
2010-10-27 06:39:28 51°15.675 2°53.672 7.8 302 9.4 101970 42
2010-10-27 06:39:33 51°15.689 2°53.653 7.5 258 9.4 101980 43
2010-10-27 06:39:38 51°15.704 2°53.636 9 304 9.4 101980 43
2010-10-27 06:39:43 51°15.718 2°53.618 10.3 257 9.4 101970 42
2010-10-27 06:39:48 51°15.733 2°53.599 8.6 303 9.4 101970 42
2010-10-27 06:39:53 51°15.748 2°53.581 8.7 254 9.4 101980 44
2010-10-27 06:39:58 51°15.762 2°53.563 8.6 305 9.4 101980 44
2010-10-27 06:40:03 51°15.777 2°53.545 7.7 258 9.4 101980 43
2010-10-27 06:40:08 51°15.791 2°53.527 7.8 310 9.4 101980 43
2010-10-27 06:40:13 51°15.807 2°53.511 7.3 259 9.4 101980 43
2010-10-27 06:40:18 51°15.823 2°53.493 7.9 310 9.4 101980 43
2010-10-27 06:40:23 51°15.838 2°53.476 4.8 261 9.4 101990 43
2010-10-27 06:40:28 51°15.854 2°53.46 5 285 9.4 101990 43
2010-10-27 06:40:33 51°15.869 2°53.445 8.5 256 9.4 101990 43
2010-10-27 06:40:39 51°15.888 2°53.426 7.6 306 9.4 101990 43
2010-10-27 06:40:43 51°15.9 2°53.414 8.1 255 9.4 101980 44
2010-10-27 06:40:48 51°15.916 2°53.399 6.6 310 9.4 101980 44
2010-10-27 06:40:53 51°15.932 2°53.383 3.7 263 9.4 101980 44
2010-10-27 06:40:59 51°15.951 2°53.366 6.6 302 9.4 101980 44
2010-10-27 06:41:03 51°15.964 2°53.354 4.3 259 9.4 101990 42
2010-10-27 06:41:08 51°15.98 2°53.339 7.3 309 9.4 101990 42
2010-10-27 06:41:13 51°15.995 2°53.324 8.3 257 9.4 101980 41
2010-10-27 06:41:18 51°16.012 2°53.309 7.6 308 9.4 101980 41
2010-10-27 06:41:23 51°16.028 2°53.294 7.1 261 9.4 101980 45
2010-10-27 06:41:28 51°16.044 2°53.278 7.3 308 9.4 101980 45
2010-10-27 06:41:33 51°16.059 2°53.264 7.3 257 9.5 101980 42
2010-10-27 06:41:38 51°16.076 2°53.249 7.5 308 9.5 101980 42
2010-10-27 06:41:43 51°16.092 2°53.233 6.8 257 9.5 101980 44
2010-10-27 06:41:48 51°16.108 2°53.221 8.4 311 9.5 101980 44
2010-10-27 06:41:53 51°16.124 2°53.205 5.7 261 9.4 101980 42
2010-10-27 06:41:58 51°16.141 2°53.193 7.1 309 9.4 101980 42
2010-10-27 06:42:03 51°16.158 2°53.179 5.5 255 9.4 101990 43
2010-10-27 06:42:08 51°16.174 2°53.166 7.1 303 9.4 101990 43
2010-10-27 06:42:13 51°16.19 2°53.152 4.4 263 9.5 101980 44
2010-10-27 06:42:18 51°16.207 2°53.14 5.4 302 9.5 101980 44
2010-10-27 06:42:23 51°16.224 2°53.127 3.9 261 9.5 101990 44
2010-10-27 06:42:28 51°16.241 2°53.114 6.6 285 9.5 101990 44
2010-10-27 06:42:33 51°16.258 2°53.101 5.7 261 9.5 101980 42
2010-10-27 06:42:38 51°16.275 2°53.089 5.7 310 9.5 101980 42
2010-10-27 06:42:43 51°16.292 2°53.076 4.7 260 9.5 101980 42
2010-10-27 06:42:48 51°16.309 2°53.064 4.1 304 9.5 101980 42
2010-10-27 06:42:53 51°16.326 2°53.051 4.4 263 9.4 101980 43
2010-10-27 06:42:59 51°16.346 2°53.037 4.1 303 9.4 101980 43
2010-10-27 06:43:03 51°16.36 2°53.026 4.3 270 9.4 101980 45
2010-10-27 06:43:08 51°16.376 2°53.013 5.8 283 9.4 101980 45
2010-10-27 06:43:13 51°16.393 2°53.001 5.4 261 9.4 101980 42
2010-10-27 06:43:19 51°16.414 2°52.986 5.2 308 9.4 101980 42
2010-10-27 06:43:23 51°16.427 2°52.977 4.7 262 9.4 101980 42
2010-10-27 06:43:28 51°16.445 2°52.964 4.9 304 9.4 101980 42
2010-10-27 06:43:33 51°16.461 2°52.951 4.3 263 9.4 101980 42
2010-10-27 06:43:38 51°16.478 2°52.938 3.3 310 9.4 101980 42
2010-10-27 06:43:43 51°16.495 2°52.926 5.8 258 9.4 101980 44
2010-10-27 06:43:48 51°16.512 2°52.914 3.9 303 9.4 101980 44
2010-10-27 06:43:53 51°16.529 2°52.901 3.7 264 9.4 101970 41
2010-10-27 06:43:58 51°16.545 2°52.888 3.5 304 9.4 101970 41
2010-10-27 06:44:03 51°16.562 2°52.875 4 260 9.4 101960 45
2010-10-27 06:44:08 51°16.579 2°52.862 6.6 311 9.4 101960 45
2010-10-27 06:44:13 51°16.596 2°52.849 5.1 262 9.4 101970 45
2010-10-27 06:44:18 51°16.613 2°52.837 3.8 310 9.4 101970 45
2010-10-27 06:44:23 51°16.629 2°52.823 4.4 261 9.4 101970 42
2010-10-27 06:44:28 51°16.646 2°52.81 4.4 304 9.4 101970 42
2010-10-27 06:44:33 51°16.662 2°52.797 3.8 265 9.4 101970 45
2010-10-27 06:44:38 51°16.679 2°52.785 5 307 9.4 101970 45
2010-10-27 06:44:43 51°16.696 2°52.773 3.9 264 9.4 101960 42
2010-10-27 06:44:48 51°16.713 2°52.761 5.3 281 9.4 101960 42
2010-10-27 06:44:53 51°16.73 2°52.749 5.2 267 9.4 101960 43
2010-10-27 06:44:59 51°16.75 2°52.734 4.6 302 9.4 101960 43
2010-10-27 06:45:03 51°16.763 2°52.724 4.6 257 9.4 101970 42
2010-10-27 06:45:08 51°16.78 2°52.712 5.4 286 9.4 101970 42
2010-10-27 06:45:13 51°16.796 2°52.699 6.1 262 9.4 101970 44
2010-10-27 06:45:18 51°16.813 2°52.687 5.6 304 9.4 101970 44
2010-10-27 06:45:23 51°16.83 2°52.674 5.9 266 9.4 101970 42
2010-10-27 06:45:28 51°16.846 2°52.662 5.2 305 9.4 101970 42
2010-10-27 06:45:33 51°16.863 2°52.648 4.5 263 9.4 101970 42
2010-10-27 06:45:39 51°16.883 2°52.632 4.1 310 9.4 101970 42
2010-10-27 06:45:43 51°16.896 2°52.622 4 264 9.4 101970 43
2010-10-27 06:45:48 51°16.913 2°52.609 6.1 309 9.4 101970 43
2010-10-27 06:45:53 51°16.93 2°52.596 4.7 258 9.4 101960 42
2010-10-27 06:45:58 51°16.947 2°52.584 5.5 308 9.4 101960 42
2010-10-27 06:46:03 51°16.964 2°52.572 5.6 267 9.4 101970 45
2010-10-27 06:46:08 51°16.98 2°52.559 5.1 284 9.4 101970 45
2010-10-27 06:46:13 51°16.997 2°52.547 3.9 263 9.4 101970 43
2010-10-27 06:46:18 51°17.014 2°52.534 4.9 311 9.4 101970 43
2010-10-27 06:46:23 51°17.031 2°52.521 4.6 265 9.4 101970 41
2010-10-27 06:46:28 51°17.048 2°52.509 4.5 302 9.4 101970 41
2010-10-27 06:46:33 51°17.064 2°52.496 5.9 267 9.4 101970 43
2010-10-27 06:46:38 51°17.081 2°52.483 6.7 303 9.4 101970 43
2010-10-27 06:46:43 51°17.098 2°52.47 5.2 264 9.5 101960 42
2010-10-27 06:46:48 51°17.115 2°52.458 6.8 281 9.5 101960 42
2010-10-27 06:46:53 51°17.131 2°52.445 4.6 267 9.5 101970 45
2010-10-27 06:46:58 51°17.148 2°52.432 5.5 310 9.5 101970 45
2010-10-27 06:47:03 51°17.165 2°52.419 3.6 263 9.5 101960 42
2010-10-27 06:47:08 51°17.182 2°52.406 3.6 280 9.5 101960 42
2010-10-27 06:47:13 51°17.199 2°52.393 4.1 263 9.5 101960 42
2010-10-27 06:47:19 51°17.219 2°52.378 4.6 305 9.5 101960 42
2010-10-27 06:47:23 51°17.232 2°52.368 6.9 261 9.5 101960 42
2010-10-27 06:47:28 51°17.249 2°52.354 6.8 308 9.5 101960 42
2010-10-27 06:47:33 51°17.265 2°52.341 4.8 264 9.5 101970 41
2010-10-27 06:47:39 51°17.286 2°52.326 6.7 309 9.5 101970 41
2010-10-27 06:47:43 51°17.299 2°52.315 5.8 265 9.5 101960 43
2010-10-27 06:47:48 51°17.316 2°52.302 4.2 305 9.5 101960 43
2010-10-27 06:47:53 51°17.333 2°52.29 5.5 269 9.5 101960 44
2010-10-27 06:47:58 51°17.35 2°52.277 6.2 309 9.5 101960 44
2010-10-27 06:48:03 51°17.366 2°52.264 4.2 264 9.5 101960 44
2010-10-27 06:48:08 51°17.383 2°52.252 5.1 285 9.5 101960 44
2010-10-27 06:48:13 51°17.4 2°52.238 5.8 263 9.5 101960 45
2010-10-27 06:48:18 51°17.416 2°52.225 6.1 308 9.5 101960 45
2010-10-27 06:48:23 51°17.433 2°52.211 6.1 262 9.6 101960 43
2010-10-27 06:48:28 51°17.449 2°52.199 5.2 303 9.6 101960 43
2010-10-27 06:48:33 51°17.466 2°52.185 5.3 260 9.6 101960 45
2010-10-27 06:48:38 51°17.483 2°52.172 8.4 307 9.6 101960 45
2010-10-27 06:48:43 51°17.499 2°52.159 6.3 263 9.6 101960 44
2010-10-27 06:48:48 51°17.515 2°52.145 5.5 308 9.6 101960 44
2010-10-27 06:48:53 51°17.532 2°52.133 7 263 9.6 101960 42
2010-10-27 06:48:58 51°17.549 2°52.118 6 304 9.6 101960 42
2010-10-27 06:49:03 51°17.566 2°52.107 7.4 261 9.6 101960 45
2010-10-27 06:49:08 51°17.583 2°52.093 6.1 307 9.6 101960 45
2010-10-27 06:49:14 51°17.602 2°52.076 6.6 263 9.7 101960 44
2010-10-27 06:49:19 51°17.619 2°52.064 6.3 308 9.7 101960 44
2010-10-27 06:49:23 51°17.632 2°52.053 7.9 263 9.7 101960 45
2010-10-27 06:49:28 51°17.649 2°52.04 5.1 303 9.7 101960 45
2010-10-27 06:49:34 51°17.668 2°52.023 5.9 265 9.7 101950 43
2010-10-27 06:49:39 51°17.685 2°52.011 5.5 302 9.7 101950 43
2010-10-27 06:49:43 51°17.699 2°52.001 7.7 261 9.7 101960 42
2010-10-27 06:49:48 51°17.715 2°51.988 7.6 303 9.7 101960 42
2010-10-27 06:49:53 51°17.732 2°51.975 5.7 261 9.7 101960 43
2010-10-27 06:49:59 51°17.752 2°51.961 5.1 309 9.7 101960 43
2010-10-27 06:50:03 51°17.765 2°51.95 7.3 259 9.7 101960 43
2010-10-27 06:50:08 51°17.781 2°51.937 3.8 310 9.7 101960 43
2010-10-27 06:50:13 51°17.798 2°51.924 7.3 261 9.8 101950 43
2010-10-27 06:50:18 51°17.815 2°51.912 6.9 305 9.8 101950 43
2010-10-27 06:50:23 51°17.832 2°51.899 4.9 263 9.8 101960 44
2010-10-27 06:50:28 51°17.848 2°51.886 6.8 309 9.8 101960 44
2010-10-27 06:50:33 51°17.865 2°51.873 6 264 9.8 101950 43
2010-10-27 06:50:38 51°17.882 2°51.861 8.3 306 9.8 101950 43
2010-10-27 06:50:43 51°17.898 2°51.848 5.9 262 9.8 101960 44
2010-10-27 06:50:48 51°17.915 2°51.835 6.4 303 9.8 101960 44
2010-10-27 06:50:53 51°17.932 2°51.823 6.4 259 9.8 101950 45
2010-10-27 06:50:58 51°17.949 2°51.809 6.7 308 9.8 101950 45
2010-10-27 06:51:03 51°17.966 2°51.797 5.7 264 9.8 101950 44
2010-10-27 06:51:08 51°17.982 2°51.784 6.3 303 9.8 101950 44
2010-10-27 06:51:14 51°18.003 2°51.77 5 262 9.8 101960 45
2010-10-27 06:51:19 51°18.02 2°51.756 5 310 9.8 101960 45
2010-10-27 06:51:23 51°18.033 2°51.746 5.4 258 9.8 101950 44
2010-10-27 06:51:28 51°18.05 2°51.733 4.1 307 9.8 101950 44
2010-10-27 06:51:33 51°18.067 2°51.72 6.5 267 9.9 101950 42
2010-10-27 06:51:39 51°18.087 2°51.705 5.6 310 9.9 101950 42
2010-10-27 06:51:43 51°18.1 2°51.694 6.6 266 9.9 101950 44
2010-10-27 06:51:48 51°18.117 2°51.682 4.3 310 9.9 101950 44
2010-10-27 06:51:54 51°18.137 2°51.666 5.9 267 9.9 101950 43
2010-10-27 06:51:59 51°18.153 2°51.653 7.6 305 9.9 101950 43
2010-10-27 06:52:03 51°18.167 2°51.643 4.9 264 9.9 101940 44
2010-10-27 06:52:08 51°18.183 2°51.629 5.9 304 9.9 101940 44
2010-10-27 06:52:13 51°18.2 2°51.617 5.1 264 9.9 101950 45
2010-10-27 06:52:19 51°18.22 2°51.601 5.6 310 9.9 101950 45
2010-10-27 06:52:23 51°18.233 2°51.59 6.4 262 9.9 101940 44
2010-10-27 06:52:28 51°18.25 2°51.577 7.3 307 9.9 101940 44
2010-10-27 06:52:33 51°18.267 2°51.564 8.9 259 9.9 101940 44
2010-10-27 06:52:38 51°18.283 2°51.551 6.5 301 9.9 101940 44
2010-10-27 06:52:43 51°18.3 2°51.538 7.2 262 9.9 101940 43
2010-10-27 06:52:48 51°18.317 2°51.525 6.6 305 9.9 101940 43
2010-10-27 06:52:53 51°18.333 2°51.512 5.7 264 9.9 101950 45
2010-10-27 06:52:58 51°18.35 2°51.499 5.1 302 9.9 101950 45
2010-10-27 06:53:03 51°18.366 2°51.486 6 260 9.9 101940 45
2010-10-27 06:53:08 51°18.383 2°51.473 5.3 308 9.9 101940 45
2010-10-27 06:53:13 51°18.4 2°51.46 6.3 261 9.9 101940 45
2010-10-27 06:53:18 51°18.417 2°51.447 7.9 309 9.9 101940 45
2010-10-27 06:53:23 51°18.434 2°51.434 5.9 263 9.9 101950 43
2010-10-27 06:53:28 51°18.451 2°51.421 5.2 304 9.9 101950 43
2010-10-27 06:53:34 51°18.471 2°51.405 5.5 262 9.9 101960 44
2010-10-27 06:53:39 51°18.487 2°51.392 5.6 305 9.9 101960 44
2010-10-27 06:53:43 51°18.501 2°51.382 5.4 264 9.9 101950 42
2010-10-27 06:53:48 51°18.517 2°51.368 5.4 309 9.9 101950 42
2010-10-27 06:53:53 51°18.534 2°51.355 3.9 264 9.9 101950 43
2010-10-27 06:53:59 51°18.554 2°51.338 4.3 302 9.9 101950 43
2010-10-27 06:54:03 51°18.567 2°51.328 4.4 268 9.9 101950 42
2010-10-27 06:54:08 51°18.584 2°51.315 4.2 304 9.9 101950 42
2010-10-27 06:54:14 51°18.605 2°51.299 3.9 264 9.9 101950 42
2010-10-27 06:54:19 51°18.621 2°51.285 5.1 309 9.9 101950 42
2010-10-27 06:54:23 51°18.635 2°51.275 3.8 265 9.9 101940 44
2010-10-27 06:54:28 51°18.651 2°51.261 4.5 310 9.9 101940 44
2010-10-27 06:54:33 51°18.668 2°51.248 5 264 9.9 101940 45
2010-10-27 06:54:39 51°18.689 2°51.232 6.3 306 9.9 101940 45
2010-10-27 06:54:43 51°18.702 2°51.222 6.6 269 9.9 101940 45
2010-10-27 06:54:48 51°18.719 2°51.209 5.1 310 9.9 101940 45
2010-10-27 06:54:53 51°18.736 2°51.196 4.7 269 9.9 101940 43
2010-10-27 06:54:58 51°18.752 2°51.183 4.7 304 9.9 101940 43
2010-10-27 06:55:03 51°18.768 2°51.169 3.9 264 9.9 101940 44
2010-10-27 06:55:08 51°18.786 2°51.156 7.2 302 9.9 101940 44
2010-10-27 06:55:13 51°18.802 2°51.144 6 260 9.9 101950 44
2010-10-27 06:55:18 51°18.819 2°51.129 4.5 302 9.9 101950 44
2010-10-27 06:55:23 51°18.835 2°51.116 4.5 265 9.9 101940 44
2010-10-27 06:55:28 51°18.852 2°51.104 5.4 309 9.9 101940 44
2010-10-27 06:55:33 51°18.869 2°51.09 5 264 9.9 101950 45
2010-10-27 06:55:38 51°18.885 2°51.078 6.1 310 9.9 101950 45
2010-10-27 06:55:43 51°18.901 2°51.064 4.9 261 9.9 101940 42
2010-10-27 06:55:48 51°18.917 2°51.051 6.3 304 9.9 101940 42
2010-10-27 06:55:54 51°18.937 2°51.035 6.3 269 9.9 101950 45
2010-10-27 06:55:59 51°18.953 2°51.021 5.9 309 9.9 101950 45
2010-10-27 06:56:03 51°18.967 2°51.011 4.4 264 9.9 101940 45
2010-10-27 06:56:08 51°18.983 2°50.996 3.7 310 9.9 101940 45
2010-10-27 06:56:13 51°19.001 2°50.985 6.3 267 9.9 101940 44
2010-10-27 06:56:19 51°19.02 2°50.967 5.8 310 9.9 101940 44
2010-10-27 06:56:23 51°19.034 2°50.958 6.4 268 9.9 101940 42
2010-10-27 06:56:28 51°19.05 2°50.943 3.8 302 9.9 101940 42
2010-10-27 06:56:34 51°19.07 2°50.927 4.4 269 9.9 101940 45
2010-10-27 06:56:39 51°19.087 2°50.914 5.5 305 9.9 101940 45
2010-10-27 06:56:43 51°19.1 2°50.903 4.2 264 9.9 101940 43
2010-10-27 06:56:48 51°19.116 2°50.89 5.6 305 9.9 101940 43
2010-10-27 06:56:53 51°19.133 2°50.876 5.2 270 9.9 101940 41
2010-10-27 06:56:59 51°19.154 2°50.86 3.4 311 9.9 101940 41
2010-10-27 06:57:03 51°19.167 2°50.85 5.3 264 9.9 101930 42
2010-10-27 06:57:08 51°19.184 2°50.836 4 303 9.9 101930 42
2010-10-27 06:57:13 51°19.201 2°50.824 3.7 266 9.8 101940 44
2010-10-27 06:57:18 51°19.217 2°50.811 4.7 307 9.8 101940 44
2010-10-27 06:57:23 51°19.234 2°50.798 5.7 270 9.9 101940 45
2010-10-27 06:57:28 51°19.251 2°50.784 6.1 55 9.9 101940 45
2010-10-27 06:57:33 51°19.267 2°50.772 7.5 29 9.9 101930 42
2010-10-27 06:57:38 51°19.284 2°50.758 3.1 309 9.9 101930 42
2010-10-27 06:57:43 51°19.3 2°50.745 3.7 264 9.9 101940 43
2010-10-27 06:57:48 51°19.317 2°50.732 6.3 301 9.9 101940 43
2010-10-27 06:57:53 51°19.334 2°50.719 4.8 264 9.9 101940 43
2010-10-27 06:57:58 51°19.351 2°50.706 5.1 304 9.9 101940 43
2010-10-27 06:58:03 51°19.367 2°50.692 6.5 268 9.9 101940 43
2010-10-27 06:58:08 51°19.383 2°50.679 3.9 303 9.9 101940 43
2010-10-27 06:58:14 51°19.404 2°50.663 4.9 264 9.9 101930 44
2010-10-27 06:58:19 51°19.42 2°50.651 7.1 307 9.9 101930 44
2010-10-27 06:58:23 51°19.434 2°50.64 4 263 9.9 101930 44
2010-10-27 06:58:28 51°19.45 2°50.626 5.5 308 9.9 101930 44
2010-10-27 06:58:33 51°19.467 2°50.613 5.2 267 9.9 101930 43
2010-10-27 06:58:39 51°19.487 2°50.597 4.6 308 9.9 101930 43
2010-10-27 06:58:43 51°19.5 2°50.586 4.8 261 9.9 101940 42
2010-10-27 06:58:48 51°19.517 2°50.573 5 305 9.9 101940 42
2010-10-27 06:58:53 51°19.534 2°50.56 5.3 265 9.9 101940 42
2010-10-27 06:58:59 51°19.555 2°50.545 3.6 312 9.9 101940 42
2010-10-27 06:59:03 51°19.568 2°50.534 6.3 266 9.9 101930 42
2010-10-27 06:59:08 51°19.584 2°50.522 4.6 308 9.9 101930 42
2010-10-27 06:59:13 51°19.6 2°50.507 5.5 264 9.9 101930 43
2010-10-27 06:59:18 51°19.617 2°50.494 4 305 9.9 101930 43
2010-10-27 06:59:23 51°19.634 2°50.481 8 257 9.9 101940 43
2010-10-27 06:59:28 51°19.651 2°50.467 3.3 307 9.9 101940 43
2010-10-27 06:59:33 51°19.668 2°50.454 6.6 260 9.9 101930 42
2010-10-27 06:59:38 51°19.684 2°50.44 4.6 304 9.9 101930 42
2010-10-27 06:59:43 51°19.701 2°50.427 5.8 264 9.9 101920 44
2010-10-27 06:59:48 51°19.718 2°50.413 6 305 9.9 101920 44
2010-10-27 06:59:53 51°19.734 2°50.4 4.8 265 9.9 101930 43
2010-10-27 06:59:58 51°19.752 2°50.385 4.2 301 9.9 101930 43
2010-10-27 07:00:03 51°19.769 2°50.372 4.4 265 9.9 101930 45
2010-10-27 07:00:08 51°19.786 2°50.357 5.3 310 9.9 101930 45
2010-10-27 07:00:13 51°19.801 2°50.344 4.5 253 9.9 101930 45
2010-10-27 07:00:18 51°19.819 2°50.33 5.2 308 9.9 101930 45
2010-10-27 07:00:23 51°19.835 2°50.316 2.8 262 9.9 101930 42
2010-10-27 07:00:28 51°19.852 2°50.302 4 310 9.9 101930 42
2010-10-27 07:00:34 51°19.873 2°50.287 4.6 257 9.9 101930 44
2010-10-27 07:00:39 51°19.889 2°50.273 4 308 9.9 101930 44
2010-10-27 07:00:43 51°19.903 2°50.264 5.4 261 9.9 101940 45
2010-10-27 07:00:48 51°19.92 2°50.25 6.6 310 9.9 101940 45
2010-10-27 07:00:53 51°19.936 2°50.236 4.3 265 9.9 101930 45
2010-10-27 07:00:59 51°19.956 2°50.22 6.3 302 9.9 101930 45
2010-10-27 07:01:03 51°19.97 2°50.209 6.4 262 10 101930 45
2010-10-27 07:01:08 51°19.987 2°50.196 7.7 305 10 101930 45
2010-10-27 07:01:13 51°20.004 2°50.182 5.1 264 10 101930 44
2010-10-27 07:01:19 51°20.024 2°50.166 6.5 307 10 101930 44
2010-10-27 07:01:23 51°20.037 2°50.156 5.7 262 10 101930 44
2010-10-27 07:01:28 51°20.054 2°50.142 7.3 307 10 101930 44
2010-10-27 07:01:33 51°20.07 2°50.129 6.3 264 10 101920 45
2010-10-27 07:01:38 51°20.087 2°50.114 6.1 309 10 101920 45
2010-10-27 07:01:43 51°20.104 2°50.102 7.7 259 10 101930 44
2010-10-27 07:01:48 51°20.12 2°50.087 4.6 303 10 101930 44
2010-10-27 07:01:53 51°20.137 2°50.074 7.3 255 10 101930 45
2010-10-27 07:01:58 51°20.154 2°50.06 3.3 308 10 101930 45
2010-10-27 07:02:03 51°20.171 2°50.047 5.8 261 10.1 101910 44
2010-10-27 07:02:08 51°20.187 2°50.033 5.5 309 10.1 101910 44
2010-10-27 07:02:13 51°20.204 2°50.021 4.4 262 10.1 101920 43
2010-10-27 07:02:18 51°20.221 2°50.007 4.7 306 10.1 101920 43
2010-10-27 07:02:23 51°20.237 2°49.994 4.5 264 10.1 101920 44
2010-10-27 07:02:28 51°20.254 2°49.98 5 309 10.1 101920 44
2010-10-27 07:02:33 51°20.271 2°49.967 6.3 262 10.1 101920 46
2010-10-27 07:02:38 51°20.287 2°49.953 4.7 307 10.1 101920 46
2010-10-27 07:02:43 51°20.304 2°49.94 5.1 263 10.1 101920 46
2010-10-27 07:02:48 51°20.321 2°49.927 8.8 308 10.1 101920 46
2010-10-27 07:02:54 51°20.341 2°49.91 4.8 263 10.1 101920 43
2010-10-27 07:02:59 51°20.358 2°49.897 7.3 309 10.1 101920 43
2010-10-27 07:03:03 51°20.371 2°49.885 6.8 261 10.1 101920 44
2010-10-27 07:03:08 51°20.388 2°49.872 8.8 285 10.1 101920 44
2010-10-27 07:03:13 51°20.405 2°49.858 6.6 268 10.2 101920 43
2010-10-27 07:03:19 51°20.425 2°49.842 7.4 307 10.2 101920 43
2010-10-27 07:03:23 51°20.439 2°49.831 5.2 264 10.1 101960 45
2010-10-27 07:03:28 51°20.455 2°49.817 5.9 308 10.1 101960 45
2010-10-27 07:03:33 51°20.472 2°49.804 5.3 263 10.2 101930 43
2010-10-27 07:03:38 51°20.49 2°49.792 4.8 305 10.2 101930 43
2010-10-27 07:03:43 51°20.506 2°49.779 7 264 10.1 101920 45
2010-10-27 07:03:48 51°20.523 2°49.765 6.4 305 10.1 101920 45
2010-10-27 07:03:53 51°20.54 2°49.751 4.5 262 10.2 101920 43
2010-10-27 07:03:58 51°20.556 2°49.738 9 301 10.2 101920 43
2010-10-27 07:04:03 51°20.57 2°49.72 9.7 258 10.1 101910 45
2010-10-27 07:04:08 51°20.584 2°49.701 10.8 308 10.1 101910 45
2010-10-27 07:04:13 51°20.595 2°49.679 10.4 246 10.1 101910 43
2010-10-27 07:04:18 51°20.606 2°49.657 11.2 306 10.1 101910 43
2010-10-27 07:04:23 51°20.614 2°49.632 11.3 22 10.1 101920 43
2010-10-27 07:04:28 51°20.623 2°49.607 12.7 307 10.1 101920 43
2010-10-27 07:04:33 51°20.631 2°49.581 12.4 245 10.1 101900 43
2010-10-27 07:04:38 51°20.638 2°49.554 13.2 307 10.1 101900 43
2010-10-27 07:04:43 51°20.646 2°49.528 11.7 248 10.1 101900 42
2010-10-27 07:04:48 51°20.652 2°49.501 11.9 304 10.1 101900 42
2010-10-27 07:04:53 51°20.659 2°49.473 12 22 10.1 101900 44
2010-10-27 07:04:58 51°20.666 2°49.446 12.5 311 10.1 101900 44
2010-10-27 07:05:03 51°20.673 2°49.419 13.6 20 10.1 101890 44
2010-10-27 07:05:08 51°20.679 2°49.391 13.1 284 10.1 101890 44
2010-10-27 07:05:14 51°20.687 2°49.357 14.4 22 10.2 101880 43
2010-10-27 07:05:19 51°20.694 2°49.329 13.5 302 10.2 101880 43
2010-10-27 07:05:23 51°20.699 2°49.307 12.7 246 10.2 101890 45
2010-10-27 07:05:28 51°20.706 2°49.279 12.6 303 10.2 101890 45
2010-10-27 07:05:33 51°20.712 2°49.251 11.3 22 10.2 101880 44
2010-10-27 07:05:39 51°20.72 2°49.218 12.2 306 10.2 101880 44
2010-10-27 07:05:43 51°20.724 2°49.196 13.2 22 10.2 101880 45
2010-10-27 07:05:48 51°20.731 2°49.167 12 307 10.2 101880 45
2010-10-27 07:05:53 51°20.737 2°49.139 13.6 24 10.2 101880 43
2010-10-27 07:05:59 51°20.745 2°49.106 11.2 304 10.2 101880 43
2010-10-27 07:06:03 51°20.751 2°49.084 11.1 26 10.2 101880 43
2010-10-27 07:06:08 51°20.757 2°49.056 12.3 307 10.2 101880 43
2010-10-27 07:06:13 51°20.764 2°49.028 11.5 27 10.2 101880 44
2010-10-27 07:06:18 51°20.771 2°49 13.6 302 10.2 101880 44
2010-10-27 07:06:23 51°20.777 2°48.971 12.9 22 10.2 101880 43
2010-10-27 07:06:28 51°20.784 2°48.943 15.1 302 10.2 101880 43
2010-10-27 07:06:33 51°20.79 2°48.915 13.1 21 10.2 101880 44
2010-10-27 07:06:38 51°20.797 2°48.887 14.1 305 10.2 101880 44
2010-10-27 07:06:43 51°20.804 2°48.859 14.2 23 10.2 101880 44
2010-10-27 07:06:48 51°20.81 2°48.832 12.9 306 10.2 101880 44
2010-10-27 07:06:54 51°20.819 2°48.799 12.3 22 10.2 101880 44
2010-10-27 07:06:58 51°20.825 2°48.777 11.1 304 10.2 101880 44
2010-10-27 07:07:03 51°20.833 2°48.751 13.2 249 10.2 101870 44
2010-10-27 07:07:08 51°20.842 2°48.724 11.7 309 10.2 101870 44
2010-10-27 07:07:13 51°20.852 2°48.699 11.2 251 10.2 101870 44
2010-10-27 07:07:18 51°20.862 2°48.675 11.1 309 10.2 101870 44
2010-10-27 07:07:23 51°20.873 2°48.651 10.3 18 10.2 101880 42
2010-10-27 07:07:28 51°20.884 2°48.626 11.8 306 10.2 101880 42
2010-10-27 07:07:33 51°20.895 2°48.603 11.2 251 10.2 101890 44
2010-10-27 07:07:39 51°20.91 2°48.576 10.3 311 10.2 101890 44
2010-10-27 07:07:43 51°20.919 2°48.557 12 251 10.2 101890 43
2010-10-27 07:07:48 51°20.932 2°48.536 12.5 306 10.2 101890 43
2010-10-27 07:07:53 51°20.944 2°48.514 9.7 254 10.2 101880 45
2010-10-27 07:07:59 51°20.96 2°48.488 9.6 309 10.2 101880 45
2010-10-27 07:08:03 51°20.971 2°48.471 13.4 255 10.3 101900 43
2010-10-27 07:08:08 51°20.985 2°48.45 11.8 311 10.3 101900 43
2010-10-27 07:08:13 51°20.998 2°48.43 9.4 253 10.2 101900 44
2010-10-27 07:08:18 51°21.012 2°48.409 11.1 304 10.2 101900 44
2010-10-27 07:08:23 51°21.025 2°48.389 10.4 252 10.3 101900 44
2010-10-27 07:08:28 51°21.039 2°48.369 10.9 306 10.3 101900 44
2010-10-27 07:08:33 51°21.052 2°48.347 10.3 256 10.2 101900 44
2010-10-27 07:08:38 51°21.066 2°48.326 11.2 304 10.2 101900 44
2010-10-27 07:08:43 51°21.079 2°48.306 10.3 254 10.3 101900 43
2010-10-27 07:08:48 51°21.093 2°48.285 11.7 310 10.3 101900 43
2010-10-27 07:08:53 51°21.107 2°48.264 10 253 10.2 101910 43
2010-10-27 07:08:58 51°21.12 2°48.243 8.7 301 10.2 101910 43
2010-10-27 07:09:03 51°21.134 2°48.223 8.9 258 10.2 101900 45
2010-10-27 07:09:08 51°21.148 2°48.203 9.5 286 10.2 101900 45
2010-10-27 07:09:14 51°21.164 2°48.178 10.8 255 10.2 101910 45
2010-10-27 07:09:18 51°21.175 2°48.162 11.9 308 10.2 101910 45
2010-10-27 07:09:23 51°21.189 2°48.141 10.4 257 10.2 101900 43
2010-10-27 07:09:28 51°21.203 2°48.121 11.2 305 10.2 101900 43
2010-10-27 07:09:33 51°21.215 2°48.099 12 257 10.3 101920 44
2010-10-27 07:09:38 51°21.229 2°48.079 11.9 309 10.3 101920 44
2010-10-27 07:09:43 51°21.242 2°48.058 9.7 253 10.3 101910 45
2010-10-27 07:09:48 51°21.256 2°48.036 10.9 309 10.3 101910 45
2010-10-27 07:09:54 51°21.272 2°48.011 10.3 257 10.3 101900 45
2010-10-27 07:09:59 51°21.285 2°47.99 9.7 310 10.3 101900 45
2010-10-27 07:10:03 51°21.296 2°47.974 11.8 259 10.2 101890 42
2010-10-27 07:10:08 51°21.31 2°47.952 10.4 283 10.2 101890 42
2010-10-27 07:10:13 51°21.323 2°47.932 7.5 250 10.2 101910 44
2010-10-27 07:10:19 51°21.34 2°47.906 9.3 302 10.2 101910 44
2010-10-27 07:10:23 51°21.351 2°47.89 9.4 259 10.2 101900 44
2010-10-27 07:10:28 51°21.365 2°47.868 10.5 305 10.2 101900 44
2010-10-27 07:10:33 51°21.378 2°47.848 10.2 257 10.2 101900 43
2010-10-27 07:10:38 51°21.392 2°47.826 10.4 302 10.2 101900 43
2010-10-27 07:10:43 51°21.405 2°47.805 10.7 258 10.3 101910 43
2010-10-27 07:10:48 51°21.418 2°47.783 10.1 303 10.3 101910 43
2010-10-27 07:10:53 51°21.431 2°47.762 11.4 255 10.3 101910 45
2010-10-27 07:10:58 51°21.443 2°47.74 8.8 303 10.3 101910 45
2010-10-27 07:11:03 51°21.456 2°47.719 10.5 263 10.3 101900 45
2010-10-27 07:11:08 51°21.469 2°47.698 9 308 10.3 101900 45
2010-10-27 07:11:13 51°21.482 2°47.677 10 257 10.3 101900 44
2010-10-27 07:11:18 51°21.494 2°47.655 8.9 307 10.3 101900 44
2010-10-27 07:11:23 51°21.508 2°47.635 11.1 255 10.3 101910 45
2010-10-27 07:11:28 51°21.52 2°47.613 9.8 311 10.3 101910 45
2010-10-27 07:11:34 51°21.536 2°47.587 11.2 254 10.3 101910 43
2010-10-27 07:11:38 51°21.547 2°47.571 10.2 306 10.3 101910 43
2010-10-27 07:11:43 51°21.56 2°47.549 10 257 10.3 101900 45
2010-10-27 07:11:48 51°21.573 2°47.527 9.1 309 10.3 101900 45
2010-10-27 07:11:54 51°21.588 2°47.501 9.4 255 10.3 101900 44
2010-10-27 07:11:59 51°21.6 2°47.479 9.5 304 10.3 101900 44
2010-10-27 07:12:03 51°21.61 2°47.46 10.6 255 10.3 101890 45
2010-10-27 07:12:08 51°21.622 2°47.438 10.2 281 10.3 101890 45
2010-10-27 07:12:13 51°21.635 2°47.416 11.6 255 10.3 101900 45
2010-10-27 07:12:19 51°21.649 2°47.389 11.4 309 10.3 101900 45
2010-10-27 07:12:23 51°21.658 2°47.371 11.6 257 10.3 101930 44
2010-10-27 07:12:28 51°21.67 2°47.348 9.3 310 10.3 101930 44
2010-10-27 07:12:33 51°21.683 2°47.325 9.2 249 10.3 101900 43
2010-10-27 07:12:39 51°21.697 2°47.298 10.7 303 10.3 101900 43
2010-10-27 07:12:43 51°21.707 2°47.279 10 253 10.3 101890 43
2010-10-27 07:12:48 51°21.719 2°47.257 10.9 302 10.3 101890 43
2010-10-27 07:12:53 51°21.731 2°47.234 10.7 256 10.4 101890 45
2010-10-27 07:12:58 51°21.743 2°47.211 9.9 307 10.4 101890 45
2010-10-27 07:13:03 51°21.755 2°47.188 11.7 22 10.4 101900 43
2010-10-27 07:13:08 51°21.767 2°47.165 9.9 305 10.4 101900 43
2010-10-27 07:13:13 51°21.779 2°47.142 10.9 250 10.4 101900 44
2010-10-27 07:13:18 51°21.791 2°47.12 11.1 308 10.4 101900 44
2010-10-27 07:13:23 51°21.803 2°47.096 10.9 251 10.4 101900 45
2010-10-27 07:13:28 51°21.815 2°47.074 12.3 304 10.4 101900 45
2010-10-27 07:13:33 51°21.826 2°47.05 9.4 252 10.4 101900 44
2010-10-27 07:13:38 51°21.839 2°47.028 11 302 10.4 101900 44
2010-10-27 07:13:43 51°21.85 2°47.003 10.7 252 10.4 101890 45
2010-10-27 07:13:48 51°21.862 2°46.98 10.1 303 10.4 101890 45
2010-10-27 07:13:54 51°21.876 2°46.951 10.1 252 10.4 101890 43
2010-10-27 07:13:59 51°21.888 2°46.929 10.3 309 10.4 101890 43
2010-10-27 07:14:03 51°21.897 2°46.91 11 252 10.4 101890 45
2010-10-27 07:14:08 51°21.909 2°46.888 12.1 285 10.4 101890 45
2010-10-27 07:14:14 51°21.924 2°46.86 10.5 252 10.4 101900 43
2010-10-27 07:14:19 51°21.936 2°46.837 12.4 306 10.4 101900 43
2010-10-27 07:14:23 51°21.945 2°46.818 11.1 255 10.5 101890 44
2010-10-27 07:14:28 51°21.957 2°46.796 12.3 308 10.5 101890 44
2010-10-27 07:14:33 51°21.969 2°46.773 11.2 252 10.4 101900 45
2010-10-27 07:14:39 51°21.983 2°46.746 12.2 301 10.4 101900 45
2010-10-27 07:14:43 51°21.993 2°46.728 11.2 254 10.5 101900 44
2010-10-27 07:14:48 51°22.005 2°46.706 11.2 306 10.5 101900 44
2010-10-27 07:14:53 51°22.018 2°46.684 11.5 253 10.5 101890 44
2010-10-27 07:14:59 51°22.032 2°46.656 12.1 305 10.5 101890 44
2010-10-27 07:15:03 51°22.042 2°46.638 11.9 253 10.5 101890 44
2010-10-27 07:15:08 51°22.055 2°46.616 13.2 303 10.5 101890 44
2010-10-27 07:15:13 51°22.067 2°46.592 13.3 255 10.4 101890 44
2010-10-27 07:15:18 51°22.079 2°46.57 11.5 307 10.4 101890 44
2010-10-27 07:15:23 51°22.091 2°46.548 11.2 253 10.4 101890 42
2010-10-27 07:15:28 51°22.103 2°46.525 12 304 10.4 101890 42
2010-10-27 07:15:33 51°22.114 2°46.501 11.5 253 10.4 101890 44
2010-10-27 07:15:38 51°22.126 2°46.478 10.6 307 10.4 101890 44
2010-10-27 07:15:43 51°22.138 2°46.454 11.7 250 10.4 101880 45
2010-10-27 07:15:48 51°22.15 2°46.432 12.6 305 10.4 101880 45
2010-10-27 07:15:53 51°22.162 2°46.408 11 249 10.4 101890 44
2010-10-27 07:15:58 51°22.174 2°46.386 12.7 307 10.4 101890 44
2010-10-27 07:16:03 51°22.186 2°46.362 10.7 247 10.5 101890 44
2010-10-27 07:16:08 51°22.198 2°46.339 10.8 281 10.5 101890 44
2010-10-27 07:16:14 51°22.213 2°46.311 14.1 254 10.4 101890 44
2010-10-27 07:16:19 51°22.225 2°46.288 11.9 308 10.4 101890 44
2010-10-27 07:16:23 51°22.235 2°46.27 12.7 250 10.4 101880 44
2010-10-27 07:16:28 51°22.247 2°46.246 10.1 306 10.4 101880 44
2010-10-27 07:16:34 51°22.261 2°46.219 12.6 254 10.4 101890 44
2010-10-27 07:16:39 51°22.274 2°46.198 11.2 308 10.4 101890 44
2010-10-27 07:16:43 51°22.283 2°46.179 11.6 252 10.4 101890 44
2010-10-27 07:16:48 51°22.295 2°46.156 11.1 308 10.4 101890 44
2010-10-27 07:16:53 51°22.307 2°46.133 11.6 23 10.4 101890 43
2010-10-27 07:16:59 51°22.321 2°46.105 11.4 308 10.4 101890 43
2010-10-27 07:17:03 51°22.331 2°46.088 12.1 252 10.4 101890 44
2010-10-27 07:17:08 51°22.343 2°46.063 11.8 311 10.4 101890 44
2010-10-27 07:17:13 51°22.355 2°46.041 10.8 251 10.4 101890 45
2010-10-27 07:17:18 51°22.367 2°46.018 11.6 308 10.4 101890 45
2010-10-27 07:17:23 51°22.38 2°45.996 11.9 251 10.5 101890 44
2010-10-27 07:17:28 51°22.393 2°45.975 12.9 309 10.5 101890 44
2010-10-27 07:17:33 51°22.406 2°45.953 11.4 254 10.4 101890 44
2010-10-27 07:17:38 51°22.42 2°45.933 11.3 309 10.4 101890 44
2010-10-27 07:17:43 51°22.433 2°45.913 12.5 254 10.5 101890 44
2010-10-27 07:17:48 51°22.448 2°45.893 8.4 307 10.5 101890 44
2010-10-27 07:17:53 51°22.461 2°45.872 10.8 252 10.5 101890 43
2010-10-27 07:17:58 51°22.475 2°45.852 9.8 307 10.5 101890 43
2010-10-27 07:18:03 51°22.49 2°45.834 11.6 254 10.4 101900 44
2010-10-27 07:18:08 51°22.503 2°45.813 10.7 281 10.4 101900 44
2010-10-27 07:18:13 51°22.517 2°45.793 11.7 255 10.5 101890 45
2010-10-27 07:18:18 51°22.532 2°45.774 11 306 10.5 101890 45
2010-10-27 07:18:23 51°22.545 2°45.753 10.9 256 10.5 101900 44
2010-10-27 07:18:28 51°22.559 2°45.735 11.3 302 10.5 101900 44
2010-10-27 07:18:34 51°22.576 2°45.712 10.3 255 10.5 101890 44
2010-10-27 07:18:39 51°22.591 2°45.695 10.2 304 10.5 101890 44
2010-10-27 07:18:43 51°22.603 2°45.679 12.3 254 10.5 101890 43
2010-10-27 07:18:48 51°22.617 2°45.661 11.1 309 10.5 101890 43
2010-10-27 07:18:53 51°22.632 2°45.642 10 256 10.5 101890 43
2010-10-27 07:18:59 51°22.65 2°45.621 13.1 306 10.5 101890 43
2010-10-27 07:19:03 51°22.662 2°45.607 9.2 260 10.5 101900 44
2010-10-27 07:19:08 51°22.678 2°45.591 10.6 303 10.5 101900 44
2010-10-27 07:19:13 51°22.694 2°45.574 10.1 262 10.5 101900 44
2010-10-27 07:19:19 51°22.712 2°45.554 8.8 304 10.5 101900 44
2010-10-27 07:19:23 51°22.724 2°45.54 9 261 10.5 101890 43
2010-10-27 07:19:28 51°22.739 2°45.523 9.3 304 10.5 101890 43
2010-10-27 07:19:33 51°22.754 2°45.506 10.7 261 10.5 101900 45
2010-10-27 07:19:38 51°22.77 2°45.489 8.9 306 10.5 101900 45
2010-10-27 07:19:43 51°22.786 2°45.474 8.7 261 10.5 101900 43
2010-10-27 07:19:48 51°22.801 2°45.457 8.5 310 10.5 101900 43
2010-10-27 07:19:53 51°22.816 2°45.44 9.9 252 10.5 101900 44
2010-10-27 07:19:58 51°22.832 2°45.423 7.3 308 10.5 101900 44
2010-10-27 07:20:03 51°22.847 2°45.406 9.7 260 10.5 101890 45
2010-10-27 07:20:08 51°22.863 2°45.388 8.4 284 10.5 101890 45
2010-10-27 07:20:13 51°22.879 2°45.372 9 258 10.5 101890 43
2010-10-27 07:20:18 51°22.894 2°45.355 10.8 304 10.5 101890 43
2010-10-27 07:20:23 51°22.91 2°45.339 11 257 10.5 101890 44
2010-10-27 07:20:28 51°22.925 2°45.322 8.6 303 10.5 101890 44
2010-10-27 07:20:34 51°22.944 2°45.305 9.2 261 10.5 101890 44
2010-10-27 07:20:39 51°22.96 2°45.288 9.7 306 10.5 101890 44
2010-10-27 07:20:43 51°22.973 2°45.276 10.1 261 10.5 101900 43
2010-10-27 07:20:48 51°22.988 2°45.259 5.8 308 10.5 101900 43
2010-10-27 07:20:53 51°23.004 2°45.243 9.3 260 10.5 101900 45
2010-10-27 07:20:59 51°23.023 2°45.224 11.8 309 10.5 101900 45
2010-10-27 07:21:03 51°23.035 2°45.21 9.7 259 10.5 101900 44
2010-10-27 07:21:08 51°23.051 2°45.194 9.6 308 10.5 101900 44
2010-10-27 07:21:13 51°23.066 2°45.177 8.9 255 10.5 101930 43
2010-10-27 07:21:19 51°23.085 2°45.16 12.2 304 10.5 101930 43
2010-10-27 07:21:23 51°23.097 2°45.146 10.2 260 10.5 101900 45
2010-10-27 07:21:28 51°23.113 2°45.129 12 308 10.5 101900 45
2010-10-27 07:21:33 51°23.128 2°45.112 10.2 259 10.5 101900 43
2010-10-27 07:21:39 51°23.146 2°45.093 10.9 304 10.5 101900 43
2010-10-27 07:21:43 51°23.159 2°45.079 10.4 255 10.5 101930 44
2010-10-27 07:21:48 51°23.175 2°45.063 11.4 308 10.5 101930 44
2010-10-27 07:21:53 51°23.19 2°45.046 11.7 260 10.5 101930 45
2010-10-27 07:21:58 51°23.204 2°45.028 11.2 304 10.5 101930 45
2010-10-27 07:22:03 51°23.22 2°45.013 9.7 256 10.5 101940 44
2010-10-27 07:22:08 51°23.235 2°44.994 11.6 283 10.5 101940 44
2010-10-27 07:22:13 51°23.25 2°44.977 10.1 259 10.5 101930 44
2010-10-27 07:22:18 51°23.266 2°44.96 8.1 303 10.5 101930 44
2010-10-27 07:22:23 51°23.28 2°44.942 9.2 262 10.5 101930 43
2010-10-27 07:22:28 51°23.296 2°44.924 8.1 309 10.5 101930 43
2010-10-27 07:22:33 51°23.311 2°44.908 6.4 263 10.5 101920 45
2010-10-27 07:22:38 51°23.327 2°44.891 8 309 10.5 101920 45
2010-10-27 07:22:43 51°23.343 2°44.876 8.9 261 10.5 101900 45
2010-10-27 07:22:48 51°23.357 2°44.859 9.1 306 10.5 101900 45
2010-10-27 07:22:54 51°23.377 2°44.843 7.7 265 10.5 101900 44
2010-10-27 07:22:59 51°23.391 2°44.826 6 309 10.5 101900 44
2010-10-27 07:23:03 51°23.405 2°44.815 7 264 10.5 101910 44
2010-10-27 07:23:08 51°23.42 2°44.799 5.5 309 10.5 101910 44
2010-10-27 07:23:13 51°23.437 2°44.785 7.6 265 10.5 101900 43
2010-10-27 07:23:19 51°23.457 2°44.767 8.5 307 10.5 101900 43
2010-10-27 07:23:23 51°23.47 2°44.754 7.5 263 10.5 101900 42
2010-10-27 07:23:28 51°23.486 2°44.739 6.5 307 10.5 101900 42
2010-10-27 07:23:33 51°23.503 2°44.724 7.4 264 10.5 101910 46
2010-10-27 07:23:39 51°23.522 2°44.706 4.8 307 10.5 101910 46
2010-10-27 07:23:43 51°23.535 2°44.694 7.6 259 10.5 101910 45
2010-10-27 07:23:48 51°23.551 2°44.68 8 303 10.5 101910 45
2010-10-27 07:23:53 51°23.567 2°44.665 6.5 266 10.5 101910 43
2010-10-27 07:23:58 51°23.583 2°44.651 5.5 309 10.5 101910 43
2010-10-27 07:24:03 51°23.599 2°44.635 8.6 259 10.5 101900 44
2010-10-27 07:24:08 51°23.615 2°44.622 7 278 10.5 101900 44
2010-10-27 07:24:13 51°23.631 2°44.607 6.3 268 10.5 101900 44
2010-10-27 07:24:18 51°23.646 2°44.591 8.5 306 10.5 101900 44
2010-10-27 07:24:23 51°23.663 2°44.578 7.3 264 10.5 101910 43
2010-10-27 07:24:28 51°23.679 2°44.561 7.1 311 10.5 101910 43
2010-10-27 07:24:33 51°23.695 2°44.545 6.5 264 10.5 101910 43
2010-10-27 07:24:38 51°23.712 2°44.529 7 305 10.5 101910 43
2010-10-27 07:24:43 51°23.727 2°44.513 9.4 261 10.5 101910 44
2010-10-27 07:24:48 51°23.743 2°44.498 6.5 303 10.5 101910 44
2010-10-27 07:24:53 51°23.759 2°44.481 7.5 258 10.5 101910 44
2010-10-27 07:24:58 51°23.776 2°44.465 10.2 308 10.5 101910 44
2010-10-27 07:25:03 51°23.791 2°44.45 9.6 253 10.6 101900 43
2010-10-27 07:25:08 51°23.807 2°44.433 12.1 306 10.6 101900 43
2010-10-27 07:25:14 51°23.826 2°44.414 8.7 261 10.5 101900 45
2010-10-27 07:25:19 51°23.842 2°44.398 11.3 302 10.5 101900 45
2010-10-27 07:25:23 51°23.854 2°44.385 8.9 262 10.5 101900 43
2010-10-27 07:25:28 51°23.869 2°44.369 9.3 307 10.5 101900 43
2010-10-27 07:25:33 51°23.885 2°44.353 9.6 264 10.6 101900 44
2010-10-27 07:25:39 51°23.903 2°44.333 10.2 307 10.6 101900 44
2010-10-27 07:25:43 51°23.916 2°44.321 9.8 262 10.6 101900 43
2010-10-27 07:25:48 51°23.932 2°44.305 10.8 305 10.6 101900 43
2010-10-27 07:25:53 51°23.947 2°44.289 10.4 257 10.6 101900 45
2010-10-27 07:25:59 51°23.967 2°44.271 10.2 309 10.6 101900 45
2010-10-27 07:26:03 51°23.979 2°44.256 8.9 262 10.5 101900 42
2010-10-27 07:26:08 51°23.994 2°44.241 9.6 286 10.5 101900 42
2010-10-27 07:26:13 51°24.01 2°44.225 10.6 259 10.5 101900 43
2010-10-27 07:26:19 51°24.029 2°44.206 9 308 10.5 101900 43
2010-10-27 07:26:23 51°24.041 2°44.193 8.3 264 10.5 101910 45
2010-10-27 07:26:28 51°24.057 2°44.177 9.9 306 10.5 101910 45
2010-10-27 07:26:33 51°24.072 2°44.16 10.6 263 10.5 101900 43
2010-10-27 07:26:38 51°24.087 2°44.143 5.8 309 10.5 101900 43
2010-10-27 07:26:43 51°24.103 2°44.129 8.4 259 10.5 101900 43
2010-10-27 07:26:48 51°24.119 2°44.114 6.5 305 10.5 101900 43
2010-10-27 07:26:53 51°24.135 2°44.099 6.1 266 10.5 101910 44
2010-10-27 07:26:58 51°24.151 2°44.085 6.6 308 10.5 101910 44
2010-10-27 07:27:03 51°24.167 2°44.071 7.8 261 10.5 101890 45
2010-10-27 07:27:08 51°24.184 2°44.057 6.2 308 10.5 101890 45
2010-10-27 07:27:13 51°24.2 2°44.044 6.5 266 10.5 101950 43
2010-10-27 07:27:18 51°24.217 2°44.031 4.9 308 10.5 101950 43
2010-10-27 07:27:23 51°24.234 2°44.018 6 266 10.5 101910 45
2010-10-27 07:27:28 51°24.25 2°44.006 5.5 304 10.5 101910 45
2010-10-27 07:27:34 51°24.269 2°43.994 6.2 264 10.5 101900 43
2010-10-27 07:27:39 51°24.284 2°43.98 5.4 302 10.5 101900 43
2010-10-27 07:27:43 51°24.297 2°43.972 6.6 264 10.5 101910 45
2010-10-27 07:27:48 51°24.311 2°43.961 5.8 303 10.5 101910 45
2010-10-27 07:27:53 51°24.325 2°43.949 7.4 269 10.5 101920 43
2010-10-27 07:27:59 51°24.342 2°43.937 5 307 10.5 101920 43
2010-10-27 07:28:03 51°24.353 2°43.928 7.8 268 10.5 101910 44
2010-10-27 07:28:08 51°24.368 2°43.918 6 284 10.5 101910 44
2010-10-27 07:28:13 51°24.382 2°43.908 4.7 269 10.5 101910 42
2010-10-27 07:28:19 51°24.399 2°43.896 6.8 311 10.5 101910 42
2010-10-27 07:28:23 51°24.409 2°43.888 6.5 263 10.5 101920 49
2010-10-27 07:28:28 51°24.423 2°43.878 7.3 308 10.5 101920 49
2010-10-27 07:28:33 51°24.437 2°43.868 7.7 269 10.5 101920 43
2010-10-27 07:28:38 51°24.451 2°43.859 7.4 306 10.5 101920 43
2010-10-27 07:28:43 51°24.463 2°43.849 7.4 267 10.6 101910 44
2010-10-27 07:28:48 51°24.474 2°43.841 9.3 306 10.6 101910 44
2010-10-27 07:28:53 51°24.483 2°43.831 7.6 266 10.6 101910 44
2010-10-27 07:28:58 51°24.492 2°43.823 7.8 304 10.6 101910 44
2010-10-27 07:29:03 51°24.5 2°43.814 6.3 263 10.6 101910 45
2010-10-27 07:29:08 51°24.508 2°43.806 7.3 307 10.6 101910 45
2010-10-27 07:29:13 51°24.515 2°43.798 6.7 263 10.6 101950 44
2010-10-27 07:29:18 51°24.521 2°43.79 8.7 303 10.6 101950 44
2010-10-27 07:29:23 51°24.527 2°43.782 8.4 267 10.6 101890 45
2010-10-27 07:29:28 51°24.533 2°43.775 7 308 10.6 101890 45
2010-10-27 07:29:33 51°24.538 2°43.768 9.1 269 10.5 101890 43
2010-10-27 07:29:38 51°24.543 2°43.761 9.6 303 10.5 101890 43
2010-10-27 07:29:43 51°24.548 2°43.754 6.7 265 10.5 101890 45
2010-10-27 07:29:48 51°24.552 2°43.748 10.5 302 10.5 101890 45
2010-10-27 07:29:54 51°24.558 2°43.741 10.3 270 10.5 101950 43
2010-10-27 07:29:59 51°24.563 2°43.736 9 303 10.5 101950 43
2010-10-27 07:30:03 51°24.566 2°43.731 9.1 270 10.5 101900 45
2010-10-27 07:30:08 51°24.571 2°43.726 9.8 278 10.5 101900 45
2010-10-27 07:30:13 51°24.576 2°43.721 8.6 28 10.5 101920 43
2010-10-27 07:30:19 51°24.582 2°43.716 9.3 57 10.5 101920 43
2010-10-27 07:30:23 51°24.586 2°43.713 8.4 21 10.5 101900 43
2010-10-27 07:30:28 51°24.591 2°43.709 9 57 10.5 101900 43
2010-10-27 07:30:33 51°24.596 2°43.706 8.9 23 10.5 101900 44
2010-10-27 07:30:39 51°24.602 2°43.702 7.6 55 10.5 101900 44
2010-10-27 07:30:43 51°24.606 2°43.701 8.3 28 10.5 101900 43
2010-10-27 07:30:48 51°24.611 2°43.699 8.1 58 10.5 101900 43
2010-10-27 07:30:53 51°24.616 2°43.697 7.6 21 10.6 101910 45
2010-10-27 07:30:58 51°24.621 2°43.696 10.3 55 10.6 101910 45
2010-10-27 07:31:03 51°24.626 2°43.696 10.4 24 10.6 101910 45
2010-10-27 07:31:08 51°24.631 2°43.696 9.1 54 10.6 101910 45
2010-10-27 07:31:13 51°24.637 2°43.695 7.9 23 10.6 101910 45
2010-10-27 07:31:18 51°24.642 2°43.696 6.9 57 10.6 101910 45
2010-10-27 07:31:23 51°24.647 2°43.697 5.5 21 10.6 101920 43
2010-10-27 07:31:28 51°24.651 2°43.698 4.5 57 10.6 101920 43
2010-10-27 07:31:34 51°24.656 2°43.7 5.2 27 10.6 101910 44
2010-10-27 07:31:38 51°24.659 2°43.7 9.3 51 10.6 101910 44
2010-10-27 07:31:43 51°24.663 2°43.701 10.2 26 10.6 101930 43
2010-10-27 07:31:48 51°24.666 2°43.701 9.9 53 10.6 101930 43
2010-10-27 07:31:53 51°24.668 2°43.701 10.1 25 10.7 101920 43
2010-10-27 07:31:58 51°24.67 2°43.7 11 53 10.7 101920 43
2010-10-27 07:32:03 51°24.672 2°43.7 11.4 21 10.7 101920 43
2010-10-27 07:32:08 51°24.674 2°43.701 10.8 82 10.7 101920 43
2010-10-27 07:32:14 51°24.675 2°43.701 10.4 27 10.7 101920 44
2010-10-27 07:32:19 51°24.675 2°43.701 11.3 56 10.7 101920 44
2010-10-27 07:32:23 51°24.676 2°43.701 12.2 25 10.6 101920 45
2010-10-27 07:32:28 51°24.677 2°43.701 11.4 56 10.6 101920 45
2010-10-27 07:32:33 51°24.677 2°43.702 10.3 26 10.6 101900 44
2010-10-27 07:32:39 51°24.678 2°43.702 10.3 50 10.6 101900 44
2010-10-27 07:32:43 51°24.678 2°43.703 10.3 24 10.6 101910 44
2010-10-27 07:32:48 51°24.678 2°43.704 11.7 58 10.6 101910 44
2010-10-27 07:32:53 51°24.678 2°43.704 10.8 24 10.6 101900 43
2010-10-27 07:32:58 51°24.678 2°43.705 11 57 10.6 101900 43
2010-10-27 07:33:03 51°24.678 2°43.706 12.1 20 10.6 101910 44
2010-10-27 07:33:08 51°24.678 2°43.707 10.3 54 10.6 101910 44
2010-10-27 07:33:13 51°24.678 2°43.707 10.8 20 10.6 101910 44
2010-10-27 07:33:18 51°24.677 2°43.708 12 56 10.6 101910 44
2010-10-27 07:33:23 51°24.677 2°43.709 9.7 24 10.6 101910 45